Weather in Shalinskoye

Russia / Krasnoyarsk Krai     55°43′02″N   93°44′44″E
temp.,
°C
wind,
m/s
gust,
m/s
humid.,
%
clouds,
%
prec.,
mm/h
press.,
hPa
HPBL,
m
9 december, thu
thu901:00−15w498697 0.0 1036499
04:00−14w3787100 0.0 1035449
07:00−14w3991100 0.1 1036664
10:00−14w51186100 0.1 1038898
13:00−15w61280100 0.1 1039943
16:00−15wsw61381100 0.0 1040934
19:00−14wsw71485100 0.1 1040983
22:00−13wsw81676100 0.1 10391063
10 december, fri
fri1001:00−13wsw91681100 0.1 10391034
04:00−13wsw91778100 0.1 1038991
07:00−13wsw91777100 0.2 1037969
10:00−12wsw91874100 0.0 10371021
13:00−12wsw91779100 0.0 10371124
16:00−12wsw81585100 0.2 10381120
19:00−12w71291100 0.7 10401030
22:00−13w61289100 0.4 1041827
11 december, sat
sat1101:00−13w61288100 0.6 1042695
04:00−13wsw51286100 0.1 1041535
07:00−11sw51284100 0.1 1040466
10:00−10sw51390100 0.3 1039601
13:00−8sw61480100 0.5 1036576
16:00−7sw51379100 0.0 1034406
19:00−6sw61474100 0.0 1031400
22:00−5ssw61670100 0.0 1028382
12 december, sun
sun1201:00−5sw61866100 0.0 1024468
04:00−4sw61764100 0.0 1020502
07:00−4wsw61569100 0.0 1019589
10:00−5wsw51474100 0.0 1019786
13:00−6w51375100 0.0 1018886
16:00−8wnw4786100 0.0 1018414
19:00−10w41183100 0.0 1019646
22:00−11w51186100 0.0 1020652
13 december, mon
mon1301:00−12w51192100 0.2 1022799
04:00−14w51092100 0.4 1024877
07:00−15w5993100 0.9 1026753
10:00−16w4891100 0.3 1028655
13:00−16w4684100 0.4 1029739
16:00−17wsw359291 0.1 1030285
19:00−16wsw3790100 0.1 1030430
22:00−16sw1295100 0.1 1029131